| time (UTC) | temp F | wind direction | speed MPH | gust MPH | rain 1hr in | rain 24hr in | rain mn in | humidity % | barometer mb |
| 20260510043229 | 59 | 305 | 3.0 | 6.0 | 0.00 | 0.00 | 0.00 | 78 | 1009.2 |
| 20260510042728 | 59 | 195 | 1.0 | 2.0 | 0.00 | 0.00 | 0.00 | 78 | 1008.9 |
| 20260510042228 | 59 | 256 | 0.0 | 3.0 | 0.00 | 0.00 | 0.00 | 78 | 1008.5 |
| 20260510041726 | 59 | 24 | 0.0 | 5.0 | 0.00 | 0.00 | 0.00 | 79 | 1008.9 |
| 20260510041226 | 59 | 5 | 1.0 | 5.0 | 0.00 | 0.00 | 0.00 | 78 | 1008.5 |
| 20260510040724 | 59 | 341 | 3.0 | 6.0 | 0.00 | 0.00 | 0.00 | 77 | 1008.9 |
| 20260510040710 | 59 | 314 | 5.0 | 6.0 | 0.00 | 0.00 | 0.00 | 77 | 1008.5 |
| 20260510035723 | 59 | 300 | 5.0 | 6.0 | 0.00 | 0.00 | 0.00 | 78 | 1008.2 |
| 20260510035222 | 59 | 330 | 3.0 | 5.0 | 0.00 | 0.00 | 0.00 | 78 | 1008.2 |
| 20260510034721 | 59 | 292 | 4.0 | 5.0 | 0.00 | 0.00 | 0.00 | 78 | 1008.2 |
| 20260510034220 | 59 | 291 | 1.0 | 5.0 | 0.00 | 0.00 | 0.00 | 79 | 1008.2 |
| 20260510032718 | 59 | 180 | 2.0 | 8.0 | 0.00 | 0.00 | 0.00 | 79 | 1008.2 |
| 20260510032216 | 59 | 314 | 6.0 | 8.0 | 0.00 | 0.00 | 0.00 | 79 | 1008.2 |
| 20260510031701 | 59 | 315 | 4.0 | 6.0 | 0.00 | 0.00 | 0.00 | 79 | 1007.8 |
| 20260510030701 | 59 | 257 | 2.0 | 7.0 | 0.00 | 0.00 | 0.00 | 79 | 1007.8 |
| 20260510030201 | 59 | 333 | 3.0 | 7.0 | 0.00 | 0.00 | 0.00 | 78 | 1007.8 |
| 20260510030152 | 59 | 305 | 2.0 | 6.0 | 0.00 | 0.00 | 0.00 | 78 | 1008.2 |
| 20260510025201 | 60 | 244 | 4.0 | 6.0 | 0.00 | 0.00 | 0.00 | 78 | 1008.2 |
| 20260510024703 | 60 | 299 | 6.0 | 6.0 | 0.00 | 0.00 | 0.00 | 77 | 1008.2 |
| 20260510024201 | 60 | 309 | 5.0 | 6.0 | 0.00 | 0.00 | 0.00 | 77 | 1007.8 |
| 20260510023701 | 60 | 205 | 3.0 | 7.0 | 0.00 | 0.00 | 0.00 | 77 | 1007.8 |
| 20260510023201 | 60 | 324 | 4.0 | 7.0 | 0.00 | 0.00 | 0.00 | 76 | 1007.8 |
| 20260510022700 | 60 | 295 | 1.0 | 7.0 | 0.00 | 0.00 | 0.00 | 76 | 1007.8 |
| 20260510022201 | 60 | 335 | 3.0 | 9.0 | 0.00 | 0.00 | 0.00 | 75 | 1007.5 |
| 20260510021656 | 60 | 279 | 6.0 | 9.0 | 0.00 | 0.00 | 0.00 | 75 | 1007.8 |
| 20260510020204 | 59 | 303 | 4.0 | 9.0 | 0.00 | 0.00 | 0.00 | 79 | 1007.5 |
| 20260510015702 | 59 | 320 | 5.0 | 8.0 | 0.00 | 0.00 | 0.00 | 80 | 1007.8 |
| 20260510015200 | 59 | 329 | 4.0 | 8.0 | 0.00 | 0.00 | 0.00 | 80 | 1007.8 |
| 20260510014700 | 59 | 312 | 6.0 | 7.0 | 0.00 | 0.00 | 0.00 | 80 | 1007.8 |
| 20260510014200 | 59 | 301 | 3.0 | 9.0 | 0.00 | 0.00 | 0.00 | 80 | 1007.8 |
| 20260510013158 | 59 | 320 | 5.0 | 9.0 | 0.00 | 0.00 | 0.00 | 81 | 1007.5 |
| 20260510012657 | 59 | 296 | 4.0 | 8.0 | 0.00 | 0.00 | 0.00 | 82 | 1007.2 |
| 20260510012156 | 58 | 299 | 3.0 | 7.0 | 0.00 | 0.00 | 0.00 | 82 | 1007.5 |
| 20260510011655 | 59 | 327 | 4.0 | 10.0 | 0.00 | 0.00 | 0.00 | 82 | 1007.2 |
| 20260510010653 | 59 | 303 | 4.0 | 9.0 | 0.00 | 0.00 | 0.00 | 82 | 1007.2 |
| 20260510010153 | 59 | 311 | 3.0 | 9.0 | 0.00 | 0.00 | 0.00 | 82 | 1007.2 |
| 20260510005651 | 59 | 282 | 7.0 | 9.0 | 0.00 | 0.00 | 0.00 | 82 | 1007.2 |
| 20260510005150 | 59 | 296 | 6.0 | 9.0 | 0.00 | 0.00 | 0.00 | 83 | 1007.2 |
| 20260510004151 | 59 | 342 | 2.0 | 8.0 | 0.00 | 0.00 | 0.00 | 83 | 1007.2 |
| 20260510003648 | 59 | 282 | 4.0 | 10.0 | 0.00 | 0.00 | 0.00 | 84 | 1007.2 |
| 20260510003147 | 59 | 274 | 4.0 | 10.0 | 0.00 | 0.00 | 0.00 | 83 | 1007.2 |
| 20260510002646 | 59 | 290 | 7.0 | 12.0 | 0.00 | 0.00 | 0.00 | 83 | 1007.2 |
| 20260510002146 | 59 | 290 | 7.0 | 12.0 | 0.00 | 0.00 | 0.00 | 83 | 1006.8 |
| 20260510001644 | 59 | 293 | 3.0 | 9.0 | 0.00 | 0.00 | 0.00 | 85 | 1007.2 |
| 20260510001143 | 59 | 287 | 6.0 | 9.0 | 0.00 | 0.00 | 0.00 | 86 | 1007.2 |
| 20260510000643 | 58 | 288 | 5.0 | 11.0 | 0.00 | 0.00 | 0.00 | 87 | 1007.2 |
| 20260510000140 | 58 | 289 | 6.0 | 11.0 | 0.00 | 0.00 | 0.00 | 89 | 1007.2 |
| 20260509235630 | 58 | 249 | 4.0 | 8.0 | 0.00 | 0.00 | 0.00 | 91 | 1007.2 |
| 20260509235130 | 57 | 290 | 4.0 | 10.0 | 0.00 | 0.00 | 0.00 | 92 | 1006.8 |
| 20260509234629 | 57 | 277 | 8.0 | 10.0 | 0.00 | 0.00 | 0.00 | 93 | 1006.8 |
| 20260509234129 | 57 | 295 | 4.0 | 8.0 | 0.00 | 0.00 | 0.00 | 93 | 1007.2 |
| 20260509233628 | 56 | 231 | 3.0 | 8.0 | 0.00 | 0.00 | 0.00 | 94 | 1007.2 |
| 20260509233130 | 56 | 281 | 4.0 | 10.0 | 0.00 | 0.00 | 0.00 | 94 | 1006.5 |
| 20260509232632 | 56 | 284 | 3.0 | 10.0 | 0.00 | 0.00 | 0.00 | 94 | 1006.8 |
| 20260509232132 | 56 | 296 | 5.0 | 9.0 | 0.00 | 0.00 | 0.00 | 94 | 1006.8 |
| 20260509231631 | 56 | 305 | 5.0 | 8.0 | 0.00 | 0.00 | 0.00 | 94 | 1006.8 |
| 20260509231131 | 55 | 283 | 6.0 | 9.0 | 0.00 | 0.00 | 0.00 | 95 | 1007.2 |
| 20260509230633 | 55 | 281 | 3.0 | 10.0 | 0.00 | 0.00 | 0.00 | 95 | 1007.5 |
| 20260509230131 | 55 | 296 | 6.0 | 10.0 | 0.00 | 0.00 | 0.00 | 94 | 1007.2 |
| 20260509225129 | 54 | 298 | 5.0 | 18.0 | 0.00 | 0.00 | 0.00 | 94 | 1007.8 |
| 20260509224129 | 54 | 294 | 9.0 | 23.0 | 0.00 | 0.00 | 0.00 | 93 | 1007.5 |
| 20260509223127 | 56 | 333 | 14.0 | 34.0 | 0.00 | 0.00 | 0.00 | 86 | 1027.5 |
| 20260509222129 | 70 | 321 | 14.0 | 0.0 | 0.00 | 0.00 | 0.00 | 48 | 1029.6 |